Showing default

OV1-4, 2121

Orbit data source: Space-Track

OV1-4, 2121 is a payload satellite owned by USAF OAR (US) in LEO that was launched on Wed, 30 Mar 1966 UTC via an ATLAS D launch vehicle from the Air Force Western Test Range (AFWTR). Payload-class satellites include a variety of spacecraft equipped with specific instruments for various scientific and technological missions. These include communications satellites like Starlink; space stations such as the ISS; scientific satellites like the Hubble; Earth observation satellites from companies like Planet Labs, Umbra, and HawkEye 360; GPS; miniature CubeSats for education and research; and military/defense satellites.

Loading next visibility...
Identifier
2121, 1966-025A
Orbit
LEO
Country
Flag of USUS
Related business
Manufacturer
GD/Convair
Mission
Defense Science
Bus & Motor
OV1, Unknown motor
Mass
87 kg wet, 87 kg dry
Launch date (UTC)
1966-03-30 (59 years ago)
Launch vehicle
ATLAS D
Launch site
Air Force Western Test Range (AFWTR)
Object type
Payload
Rocket body
Debris
Shape & HBR
Domed Cyl, 0.7 m
Radar Cross Section
0.946 m², Medium (>0.1 m² and < 1m²)

Expand to show TLE details & history
Last TLE update: 21 hours ago

TLE from 21 hours ago
0 OV1-4
1 02121U 66025A   25260.35152517  .00000303  00000-0  30703-4 0  9992
2 02121 144.5046  72.2286 0083521 218.3134 141.1580 13.87274934 13237
Epoch: 2025-09-17T08:26Z
TLE epoch observation values (Epoch: 2025-09-17T08:26:11.774Z)
Latitude
-0.00002°
Longitude
-50.84914°
Altitude
985.002 km
Speed
7.337 km/s
True Right ascension
04h 48m 54s
True Declination
0° 00' 00"
Sunlit
Object was in daylight at epoch
Visualization orbit readout
Latitude
Unknown
Longitude
Unknown
Altitude
Unknown
Speed
Unknown
Apparent Right ascension
Unknown
Apparent Declination
Unknown
Sunlit
N/A
Visualization observer readout
Local Sidereal Time
22:40:33
Azimuth
Unknown
Elevation
Unknown
Doppler factor
Unknown
Orbital elements
Apogee altitude
1,002.309 km
Perigee altitude
880.046 km
Semi-major axis
7,319.314 km
Eccentricity
0.00835
Inclination
144.5046°
RAAN
72.2286°
Arg. of periapsis
218.3134°
True anomaly
141.7534°
Mean anomaly
141.158°
Eccentric anomaly
141.45618°
Mean motion
3.46607 °/min
Orbital period
103.86 mins
BSTAR
0.000030703
Loading maneuver chart data...
Computing Atmospheric mass density...
Loading historical data...
Loading historical data...
Loading historical data...
Loading historical data...
Loading historical data...
Loading historical data...
Loading historical data...

Documentation

Showing up to 5 results
|